Location: Lafig�re
(44.4503°N, 4.0357°E)
Time: 17:34:23
(UTC+00:00)

S-56A Canister/Altair - Pass Details

Date: 25 January 2021
Orbit: 631 x 2501 km, 38.9° (Epoch: 04 March)

Event Time Altitude Azimuth Distance (km) Brightness Sun altitude
Rises 06:36:17 0° 269° (W) 3,038 - -6.3°
Exits shadow 06:37:20 - 264° (W) 2,681 9.8 -6.1°
Reaches altitude 10° 06:38:47 10° 255° (WSW) 2,241 9.4 -5.9°
Maximum altitude 06:42:54 24° 201° (SSW) 1,701 9.3 -5.2°
Drops below altitude 10° 06:48:10 10° 149° (SSE) 2,923 11.4 -4.3°
Sets 06:51:58 0° 137° (SE) 4,216 12.7 -3.7°
